H1 CPF 2 NER 2021 11 16 9 320 01 glonass116 H2 0907001 9116 36111 2021 11 16 0 0 0 2021 11 19 23 45 0 900 1 1 0 0 0 1 H9 10 0 59534 0.00000 0 6724412.164 24557422.570 1479143.572 10 0 59534 900.00000 0 6721584.737 24157758.284 4653508.667 10 0 59534 1800.00000 0 6541040.708 23403901.738 7737420.745 10 0 59534 2700.00000 0 6141416.146 22333336.002 10670928.365 10 0 59534 3600.00000 0 5490234.471 20993210.898 13397002.094 10 0 59534 4500.00000 0 4565538.377 19438351.246 15862646.964 10 0 59534 5400.00000 0 3357079.947 17728962.328 18019935.535 10 0 59534 6300.00000 0 1867017.512 15928129.258 19826941.254 10 0 59534 7200.00000 0 110088.785 14099215.543 21248553.828 10 0 59534 8100.00000 0 -1886748.241 12303270.045 22257160.948 10 0 59534 9000.00000 0 -4085192.690 10596550.955 22833183.361 10 0 59534 9900.00000 0 -6436960.747 9028270.236 22965453.206 10 0 59534 10800.00000 0 -8885572.298 7638652.431 22651428.669 10 0 59534 11700.00000 0 -11368490.556 6457388.367 21897241.046 10 0 59534 12600.00000 0 -13819526.141 5502547.615 20717573.551 10 0 59534 13500.00000 0 -16171406.110 4779994.198 19135374.297 10 0 59534 14400.00000 0 -18358401.443 4283328.910 17181409.009 10 0 59534 15300.00000 0 -20318903.896 3994359.532 14893662.071 10 0 59534 16200.00000 0 -21997845.215 3884078.036 12316597.405 10 0 59534 17100.00000 0 -23348858.117 3914102.563 9500293.385 10 0 59534 18000.00000 0 -24336089.098 4038522.438 6499468.575 10 0 59534 18900.00000 0 -24935587.666 4206067.477 3372417.244 10 0 59534 19800.00000 0 -25136214.270 4362509.128 179875.435 10 0 59534 20700.00000 0 -24940029.348 4453191.290 -3016160.045 10 0 59534 21600.00000 0 -24362147.715 4425583.122 -6153636.539 10 0 59534 22500.00000 0 -23430064.942 4231745.305 -9171650.667 10 0 59534 23400.00000 0 -22182484.523 3830604.991 -12011629.936 10 0 59534 24300.00000 0 -20667695.529 3189942.762 -14618467.838 10 0 59534 25200.00000 0 -18941569.092 2288007.190 -16941590.447 10 0 59534 26100.00000 0 -17065257.936 1114688.344 -18935934.007 10 0 59534 27000.00000 0 -15102695.252 -327799.886 -20562814.974 10 0 59534 27900.00000 0 -13117997.279 -2024758.192 -21790676.215 10 0 59534 28800.00000 0 -11172877.781 -3949368.763 -22595695.406 10 0 59534 29700.00000 0 -9324181.703 -6063576.518 -22962244.479 10 0 59534 30600.00000 0 -7621640.151 -8319449.201 -22883191.642 10 0 59534 31500.00000 0 -6105939.528 -10660960.871 -22360040.383 10 0 59534 32400.00000 0 -4807184.458 -13026125.850 -21402902.842 10 0 59534 33300.00000 0 -3743817.737 -15349395.575 -20030307.797 10 0 59534 34200.00000 0 -2922041.666 -17564219.605 -18268846.602 10 0 59534 35100.00000 0 -2335764.195 -19605665.084 -16152663.269 10 0 59534 36000.00000 0 -1967071.484 -21412986.188 -13722797.864 10 0 59534 36900.00000 0 -1787206.528 -22932036.710 -11026395.235 10 0 59534 37800.00000 0 -1758012.172 -24117425.222 -8115793.787 10 0 59534 38700.00000 0 -1833777.294 -24934322.615 -5047511.485 10 0 59534 39600.00000 0 -1963407.725 -25359846.067 -1881148.606 10 0 59534 40500.00000 0 -2092829.683 -25383961.110 1321771.441 10 0 59534 41400.00000 0 -2167523.334 -25009863.623 4499000.476 10 0 59534 42300.00000 0 -2135078.534 -24253825.381 7588779.224 10 0 59534 43200.00000 0 -1947663.634 -23144509.504 10531042.200 10 0 59534 44100.00000 0 -1564301.853 -21721784.479 13268589.750 10 0 59534 45000.00000 0 -952857.867 -20035086.655 15748203.825 10 0 59534 45900.00000 0 -91649.541 -18141400.126 17921685.403 10 0 59534 46800.00000 0 1029384.385 -16102938.905 19746793.139 10 0 59534 47700.00000 0 2408010.969 -13984628.781 21188064.876 10 0 59534 48600.00000 0 4029553.537 -11851494.341 22217506.218 10 0 59534 49500.00000 0 5867273.339 -9766060.421 22815133.038 10 0 59534 50400.00000 0 7883267.339 -7785876.395 22969357.690 10 0 59534 51300.00000 0 10029845.501 -5961266.229 22677211.809 10 0 59534 52200.00000 0 12251330.883 -4333397.589 21944401.667 10 0 59534 53100.00000 0 14486208.011 -2932749.779 20785195.227 10 0 59534 54000.00000 0 16669530.553 -1778043.433 19222143.179 10 0 59534 54900.00000 0 18735488.319 -875675.494 17285639.373 10 0 59534 55800.00000 0 20620026.831 -219681.863 15013329.082 10 0 59534 56700.00000 0 22263410.418 207772.086 12449376.477 10 0 59534 57600.00000 0 23612621.983 435395.040 9643605.359 10 0 59534 58500.00000 0 24623499.245 501310.518 6650529.858 10 0 59534 59400.00000 0 25262518.240 451197.513 3528293.932 10 0 59534 60300.00000 0 25508149.547 336110.533 337540.370 10 0 59534 61200.00000 0 25351730.571 210072.003 -2859768.411 10 0 59534 62100.00000 0 24797817.573 127539.598 -6001554.594 10 0 59534 63000.00000 0 23864002.941 140856.284 -9026830.597 10 0 59534 63900.00000 0 22580205.649 297791.420 -11876882.340 10 0 59534 64800.00000 0 20987464.940 639277.396 -14496407.137 10 0 59534 65700.00000 0 19136287.927 1197437.834 -16834584.163 10 0 59534 66600.00000 0 17084620.407 1993991.040 -18846056.898 10 0 59534 67500.00000 0 14895525.676 3039096.516 -20491808.915 10 0 59534 68400.00000 0 12634667.991 4330693.750 -21739916.578 10 0 59534 69300.00000 0 10367705.330 5854361.845 -22566164.569 10 0 59534 70200.00000 0 8157699.458 7583706.865 -22954512.942 10 0 59534 71100.00000 0 6062650.394 9481261.849 -22897407.090 10 0 59534 72000.00000 0 4133257.094 11499863.069 -22395924.885 10 0 59534 72900.00000 0 2410996.607 13584446.394 -21459758.233 10 0 59534 73800.00000 0 926600.700 15674190.068 -20107029.150 10 0 59534 74700.00000 0 -301007.417 17704915.637 -18363943.523 10 0 59534 75600.00000 0 -1265272.834 19611647.863 -16264288.661 10 0 59534 76500.00000 0 -1972042.567 21331227.495 -13848783.594 10 0 59534 77400.00000 0 -2439072.367 22804868.167 -11164294.055 10 0 59534 78300.00000 0 -2695028.106 23980550.670 -8262926.720 10 0 59534 79200.00000 0 -2778024.402 24815154.265 -5201019.758 10 0 59534 80100.00000 0 -2733762.638 25276235.347 -2038049.136 10 0 59534 81000.00000 0 -2613347.651 25343378.364 1164528.078 10 0 59534 81900.00000 0 -2470876.083 25009061.705 4344470.746 10 0 59534 82800.00000 0 -2360899.156 24279001.618 7439967.165 10 0 59534 83700.00000 0 -2335868.149 23171959.206 10390840.957 10 0 59534 84600.00000 0 -2443671.620 21719018.232 13139725.270 10 0 59534 85500.00000 0 -2725369.533 19962363.812 15633181.822 10 0 59535 0.00000 0 -3213221.079 17953613.314 17822742.458 10 0 59535 900.00000 0 -3929090.758 15751768.242 19665853.826 10 0 59535 1800.00000 0 -4883300.278 13420875.684 21126703.806 10 0 59535 2700.00000 0 -6073976.433 11027493.460 22176917.721 10 0 59535 3600.00000 0 -7486922.737 8638067.440 22796108.028 10 0 59535 4500.00000 0 -9096021.275 6316329.235 22972268.351 10 0 59535 5400.00000 0 -10864148.700 4120822.533 22702004.386 10 0 59535 6300.00000 0 -12744568.833 2102660.547 21990597.500 10 0 59535 7200.00000 0 -14682744.178 303607.302 20851899.986 10 0 59535 8100.00000 0 -16618491.211 -1245438.295 19308064.147 10 0 59535 9000.00000 0 -18488389.862 -2525493.562 17389110.447 10 0 59535 9900.00000 0 -20228346.706 -3530035.679 15132343.034 10 0 59535 10800.00000 0 -21776204.998 -4265016.560 12581623.862 10 0 59535 11700.00000 0 -23074292.448 -4748349.810 9786519.338 10 0 59535 12600.00000 0 -24071800.100 -5008892.683 6801336.070 10 0 59535 13500.00000 0 -24726892.640 -5084967.263 3684064.447 10 0 59535 14400.00000 0 -25008461.640 -5022484.412 495250.666 10 0 59535 15300.00000 0 -24897448.107 -4872750.737 -2703180.579 10 0 59535 16200.00000 0 -24387678.848 -4690052.151 -5849129.599 10 0 59535 17100.00000 0 -23486181.544 -4529116.942 -8881527.800 10 0 59535 18000.00000 0 -22212965.320 -4442566.231 -11741522.577 10 0 59535 18900.00000 0 -20600276.048 -4478460.060 -14373617.934 10 0 59535 19800.00000 0 -18691357.526 -4678043.215 -16726748.771 10 0 59535 20700.00000 0 -16538770.290 -5073786.248 -18755268.086 10 0 59535 21600.00000 0 -14202338.142 -5687804.671 -20419828.434 10 0 59535 22500.00000 0 -11746807.671 -6530723.313 -21688141.038 10 0 59535 23400.00000 0 -9239317.910 -7601034.120 -22535598.388 10 0 59535 24300.00000 0 -6746784.769 -8884975.061 -22945748.886 10 0 59535 25200.00000 0 -4333308.216 -10356936.112 -22910614.765 10 0 59535 26100.00000 0 -2057709.158 -11980376.296 -22430847.416 10 0 59535 27000.00000 0 28702.624 -13709214.550 -21515717.188 10 0 59535 27900.00000 0 1884037.674 -15489637.451 -20182937.624 10 0 59535 28800.00000 0 3477334.718 -17262249.306 -18458327.141 10 0 59535 29700.00000 0 4789605.297 -18964475.727 -16375314.090 10 0 59535 30600.00000 0 5814372.543 -20533120.970 -13974294.044 10 0 59535 31500.00000 0 6557682.291 -21906972.462 -11301851.099 10 0 59535 32400.00000 0 7037586.911 -23029343.679 -8409857.610 10 0 59535 33300.00000 0 7283124.250 -23850448.656 -5354469.351 10 0 59535 34200.00000 0 7332835.303 -24329508.106 -2195035.421 10 0 59535 35100.00000 0 7232883.868 -24436498.116 1007055.965 10 0 59535 36000.00000 0 7034858.292 -24153467.208 4189573.118 10 0 59535 36900.00000 0 6793349.005 -23475365.603 7290654.210 10 0 59535 37800.00000 0 6563405.140 -22410351.069 10250014.126 10 0 59535 38700.00000 0 6397978.751 -20979557.783 13010120.823 10 0 59535 39600.00000 0 6345465.608 -19216337.368 15517317.616 10 0 59535 40500.00000 0 6447447.449 -17165003.518 17722869.203 10 0 59535 41400.00000 0 6736731.975 -14879132.447 19583910.819 10 0 59535 42300.00000 0 7235774.077 -12419490.157 21064281.928 10 0 59535 43200.00000 0 7955545.644 -9851672.911 22135228.415 10 0 59535 44100.00000 0 8894902.247 -7243559.169 22775959.863 10 0 59535 45000.00000 0 10040473.984 -4662679.023 22974051.426 10 0 59535 45900.00000 0 11367085.673 -2173610.240 22725682.848 10 0 59535 46800.00000 0 12838689.383 164491.246 22035710.313 10 0 59535 47700.00000 0 14409770.667 2300124.270 20917569.938 10 0 59535 48600.00000 0 16027170.076 4191346.825 19393014.926 10 0 59535 49500.00000 0 17632244.028 5807273.649 17491691.439 10 0 59535 50400.00000 0 19163274.778 7129105.762 15250561.380 10 0 59535 51300.00000 0 20558028.682 8150650.351 12713183.161 10 0 59535 52200.00000 0 21756355.637 8878310.723 9928864.237 10 0 59535 53100.00000 0 22702720.584 9330548.164 6951701.907 10 0 59535 54000.00000 0 23348560.740 9536839.778 3839530.964 10 0 59535 54900.00000 0 23654369.458 9536177.556 652798.756 10 0 59535 55800.00000 0 23591418.900 9375173.078 -2546610.178 10 0 59535 56700.00000 0 23143049.008 9105848.971 -5696576.844 10 0 59535 57600.00000 0 22305468.356 8783211.256 -8735954.242 10 0 59535 58500.00000 0 21088033.064 8462705.845 -11605753.813 10 0 59535 59400.00000 0 19512991.843 8197667.201 -14250288.731 10 0 59535 60300.00000 0 17614707.543 8036867.274 -16618251.939 10 0 59535 61200.00000 0 15438387.536 8022268.443 -18663708.110 10 0 59535 62100.00000 0 13038375.551 8187075.378 -20346980.743 10 0 59535 63000.00000 0 10476075.700 8554168.114 -21635417.700 10 0 59535 63900.00000 0 7817594.637 9134982.470 -22504020.867 10 0 59535 64800.00000 0 5131199.160 9928885.253 -22935928.348 10 0 59535 65700.00000 0 2484694.053 10923070.965 -22922740.305 10 0 59535 66600.00000 0 -57171.808 12092985.051 -22464682.402 10 0 59535 67500.00000 0 -2435164.409 13403256.743 -21570603.790 10 0 59535 68400.00000 0 -4597787.540 14809103.403 -20257809.456 10 0 59535 69300.00000 0 -6503178.288 16258148.461 -18551729.789 10 0 59535 70200.00000 0 -8120597.185 17692577.757 -16485433.161 10 0 59535 71100.00000 0 -9431451.882 19051544.676 -14098990.235 10 0 59535 72000.00000 0 -10429812.337 20273723.782 -11438701.604 10 0 59535 72900.00000 0 -11122396.808 21299906.068 -8556203.118 10 0 59535 73800.00000 0 -11528029.961 22075526.811 -5507465.700 10 0 59535 74700.00000 0 -11676596.514 22553019.431 -2351708.910 10 0 59535 75600.00000 0 -11607535.243 22693895.771 849750.686 10 0 59535 76500.00000 0 -11367937.545 22470464.454 4034693.751 10 0 59535 77400.00000 0 -11010331.620 21867114.070 7141211.252 10 0 59535 78300.00000 0 -10590246.716 20881106.220 10108912.269 10 0 59535 79200.00000 0 -10163661.249 19522844.108 12880102.430 10 0 59535 80100.00000 0 -9784443.513 17815604.540 15400909.414 10 0 59535 81000.00000 0 -9501893.962 15794743.837 17622333.215 10 0 59535 81900.00000 0 -9358493.602 13506410.293 19501200.493 10 0 59535 82800.00000 0 -9387954.216 11005816.626 21001004.299 10 0 59535 83700.00000 0 -9613653.150 8355144.173 22092613.019 10 0 59535 84600.00000 0 -10047519.132 5621165.874 22754834.993 10 0 59535 85500.00000 0 -10689416.352 2872686.798 22974828.151 10 0 59536 0.00000 0 -11527052.985 177908.500 22748347.151 10 0 59536 900.00000 0 -12536418.784 -2398175.143 22079823.309 10 0 59536 1800.00000 0 -13682732.459 -4796239.301 20982276.422 10 0 59536 2700.00000 0 -14921860.816 -6964850.103 19477059.914 10 0 59536 3600.00000 0 -16202149.241 -8862351.955 17593444.445 10 0 59536 4500.00000 0 -17466587.241 -10458344.163 15368047.978 10 0 59536 5400.00000 0 -18655218.171 -11734686.335 12844123.226 10 0 59536 6300.00000 0 -19707691.928 -12685991.876 10070716.163 10 0 59536 7200.00000 0 -20565853.266 -13319590.310 7101711.930 10 0 59536 8100.00000 0 -21176256.733 -13654961.437 3994786.652 10 0 59536 9000.00000 0 -21492502.221 -13722666.498 810285.601 10 0 59536 9900.00000 0 -21477292.536 -13562822.594 -2389950.157 10 0 59536 10800.00000 0 -21104126.111 -13223185.807 -5543785.664 10 0 59536 11700.00000 0 -20358553.237 -12756924.912 -8589998.855 10 0 59536 12600.00000 0 -19238942.634 -12220180.363 -11469468.488 10 0 59536 13500.00000 0 -17756725.733 -11669512.258 -14126320.060 10 0 59536 14400.00000 0 -15936107.918 -11159345.342 -16509007.504 10 0 59536 15300.00000 0 -13813258.349 -10739519.049 -18571309.819 10 0 59536 16200.00000 0 -11435011.619 -10453045.929 -20273223.700 10 0 59536 17100.00000 0 -8857134.733 -10334172.867 -21581735.399 10 0 59536 18000.00000 0 -6142230.888 -10406826.614 -22471457.373 10 0 59536 18900.00000 0 -3357366.384 -10683509.012 -22925117.993 10 0 59536 19800.00000 0 -571518.250 -11164688.438 -22933895.292 10 0 59536 20700.00000 0 2147052.355 -11838713.277 -22497588.572 10 0 59536 21600.00000 0 4733393.085 -12682251.498 -21624624.633 10 0 59536 22500.00000 0 7128313.137 -13661238.500 -20331898.301 10 0 59536 23400.00000 0 9280594.841 -14732294.146 -18644449.967 10 0 59536 24300.00000 0 11148873.165 -15844550.272 -16594985.732 10 0 59536 25200.00000 0 12703105.764 -16941812.628 -14223248.780 10 0 59536 26100.00000 0 13925572.985 -17964966.947 -11575253.424 10 0 59536 27000.00000 0 14811366.780 -18854528.333 -8702396.042 10 0 59536 27900.00000 0 15368348.719 -19553226.746 -5660459.616 10 0 59536 28800.00000 0 15616579.471 -20008519.452 -2508531.016 10 0 59536 29700.00000 0 15587244.372 -20174924.092 692147.991 10 0 59536 30600.00000 0 15321121.032 -20016073.226 3879373.469 10 0 59536 31500.00000 0 14866654.261 -19506402.814 6991192.067 10 0 59536 32400.00000 0 14277720.345 -18632402.386 9967109.682 10 0 59536 33300.00000 0 13611175.868 -17393373.137 12749271.936 10 0 59536 34200.00000 0 12924295.370 -15801660.959 15283592.838 10 0 59536 35100.00000 0 12272206.803 -13882353.622 17520809.271 10 0 59536 36000.00000 0 11705433.673 -11672453.864 19417440.525 10 0 59536 36900.00000 0 11267648.104 -9219562.280 20936634.057 10 0 59536 37800.00000 0 10993729.923 -6580124.420 22048881.195 10 0 59536 38700.00000 0 10908213.796 -3817314.599 22732589.118 10 0 59536 39600.00000 0 11024189.900 -998644.176 22974498.285 10 0 59536 40500.00000 0 11342704.420 1806606.711 22769937.635 10 0 59536 41400.00000 0 11852685.053 4530027.738 22122912.884 10 0 59536 42300.00000 0 12531394.591 7106678.167 21046026.458 10 0 59536 43200.00000 0 13345393.463 9477540.521 19560230.759 10 0 59536 44100.00000 0 14251970.725 11591726.929 17694419.536 10 0 59536 45000.00000 0 15200983.264 13408347.216 15484865.243 10 0 59536 45900.00000 0 16137025.787 14897961.989 12974513.186 10 0 59536 46800.00000 0 17001840.191 16043561.235 10212146.004 10 0 59536 47700.00000 0 17736862.700 16841028.719 7251434.680 10 0 59536 48600.00000 0 18285801.260 17299074.056 4149894.527 10 0 59536 49500.00000 0 18597134.321 17438636.634 967766.495 10 0 59536 50400.00000 0 18626425.324 17291787.620 -2233154.168 10 0 59536 51300.00000 0 18338354.961 16900177.502 -5390718.909 10 0 59536 52200.00000 0 17708385.128 16313095.563 -8443632.940 10 0 59536 53100.00000 0 16723984.016 15585223.944 -11332644.587 10 0 59536 54000.00000 0 15385360.268 14774181.643 -14001693.776 10 0 59536 54900.00000 0 13705674.712 13937962.425 -16398997.387 10 0 59536 55800.00000 0 11710720.152 13132374.825 -18478050.507 10 0 59536 56700.00000 0 9438081.828 12408592.076 -20198524.625 10 0 59536 57600.00000 0 6935812.739 11810914.929 -21527045.819 10 0 59536 58500.00000 0 4260678.180 11374841.205 -22437838.371 10 0 59536 59400.00000 0 1476041.526 11125522.922 -22913221.982 10 0 59536 60300.00000 0 -1350521.965 11076675.549 -22943953.376 10 0 59536 61200.00000 0 -4149785.294 11229985.041 -22529406.005 10 0 59536 62100.00000 0 -6853498.690 11575037.540 -21677584.449 10 0 59536 63000.00000 0 -9396979.478 12089774.883 -20404973.086 10 0 59536 63900.00000 0 -11721556.211 12741457.095 -18736221.544 10 0 59536 64800.00000 0 -13776766.539 13488091.888 -16703672.466 10 0 59536 65700.00000 0 -15522218.175 14280271.544 -14346739.965 10 0 59536 66600.00000 0 -16929036.031 15063340.323 -11711150.148 10 0 59536 67500.00000 0 -17980835.772 15779801.442 -8848057.747 10 0 59536 68400.00000 0 -18674183.560 16371862.279 -5813055.451 10 0 59536 69300.00000 0 -19018523.166 16784010.267 -2665094.970 10 0 59536 70200.00000 0 -19035574.041 16965510.370 534659.261 10 0 59536 71100.00000 0 -18758226.158 16872717.976 3724021.288 10 0 59536 72000.00000 0 -18228978.753 16471108.655 6840996.038 10 0 59536 72900.00000 0 -17497989.424 15736938.010 9824988.835 10 0 59536 73800.00000 0 -16620816.565 14658460.430 12617987.888 10 0 59536 74700.00000 0 -15655951.080 13236654.173 15165696.073 10 0 59536 75600.00000 0 -14662242.182 11485421.102 17418589.599 10 0 59536 76500.00000 0 -13696326.384 9431251.499 19332882.668 10 0 59536 77400.00000 0 -12810168.521 7112367.077 20871379.218 10 0 59536 78300.00000 0 -12048818.641 4577377.097 22004195.328 10 0 59536 79200.00000 0 -11448479.276 1883502.908 22709338.501 10 0 59536 80100.00000 0 -11034964.331 -905555.697 22973132.856 10 0 59536 81000.00000 0 -10822614.189 -3722024.146 22790482.386 10 0 59536 81900.00000 0 -10813712.257 -6496627.432 22164967.472 10 0 59536 82800.00000 0 -10998427.147 -9161228.645 21108773.044 10 0 59536 83700.00000 0 -11355282.456 -11651422.720 19642449.905 10 0 59536 84600.00000 0 -11852134.014 -13908978.295 17794513.869 10 0 59536 85500.00000 0 -12447613.109 -15884026.741 15600890.444 10 0 59537 0.00000 0 -13092974.523 -17536908.010 13104215.945 10 0 59537 900.00000 0 -13734271.560 -18839598.063 10353007.066 10 0 59537 1800.00000 0 -14314765.197 -19776657.068 7400718.419 10 0 59537 2700.00000 0 -14777466.554 -20345662.795 4304701.860 10 0 59537 3600.00000 0 -15067704.205 -20557109.850 1125091.201 10 0 59537 4500.00000 0 -15135607.872 -20433781.028 -2076367.067 10 0 59537 5400.00000 0 -14938403.219 -20009618.160 -5237513.836 10 0 59537 6300.00000 0 -14442420.388 -19328140.945 -8296984.691 10 0 59537 7200.00000 0 -13624731.067 -18440481.173 -11195400.665 10 0 59537 8100.00000 0 -12474344.539 -17403115.812 -13876519.227 10 0 59537 9000.00000 0 -10992911.673 -16275394.872 -16288323.201 10 0 59537 9900.00000 0 -9194906.590 -15116968.322 -18384026.579 10 0 59537 10800.00000 0 -7107277.495 -13985220.318 -20122978.139 10 0 59537 11700.00000 0 -4768580.295 -12932818.371 -21471445.866 10 0 59537 12600.00000 0 -2227630.167 -12005480.031 -22403267.459 10 0 59537 13500.00000 0 458273.909 -11240050.381 -22900354.979 10 0 59537 14400.00000 0 3225479.014 -10662970.411 -22953044.302 10 0 59537 15300.00000 0 6006375.211 -10289200.097 -22560282.924 10 0 59537 16200.00000 0 8731961.233 -10121640.909 -21729652.590 10 0 59537 17100.00000 0 11334473.634 -10151081.734 -20477226.136 10 0 59537 18000.00000 0 13749971.189 -10356670.406 -18827260.920 10 0 59537 18900.00000 0 15920768.134 -10706891.059 -16811734.202 10 0 59537 19800.00000 0 17797615.805 -11161006.384 -14469728.725 10 0 59537 20700.00000 0 19341542.327 -11670904.266 -11846679.729 10 0 59537 21600.00000 0 20525274.114 -12183271.144 -8993497.298 10 0 59537 22500.00000 0 21334180.102 -12642000.440 -5965580.544 10 0 59537 23400.00000 0 21766699.431 -12990734.252 -2821742.524 10 0 59537 24300.00000 0 21834234.956 -13175430.509 376933.258 10 0 59537 25200.00000 0 21560517.376 -13146846.486 3568282.401 10 0 59537 26100.00000 0 20980467.076 -12862832.833 6690271.545 10 0 59537 27000.00000 0 20138602.120 -12290340.142 9682208.594 10 0 59537 27900.00000 0 19087059.959 -11407052.079 12485927.133 10 0 59537 28800.00000 0 17883316.809 -10202574.979 15046921.270 10 0 59537 29700.00000 0 16587701.367 -8679132.453 17315408.437 10 0 59537 30600.00000 0 15260808.060 -6851734.528 19247299.172 10 0 59537 31500.00000 0 13960919.158 -4747813.073 20805054.856 10 0 59537 32400.00000 0 12741544.352 -2406337.688 21958416.842 10 0 59537 33300.00000 0 11649181.294 123552.008 22684993.068 10 0 59537 34200.00000 0 10721390.986 2784341.358 22970691.036 10 0 59537 35100.00000 0 9985268.460 5512288.970 22809989.153 10 0 59537 36000.00000 0 9456372.404 8239839.572 22206041.494 10 0 59537 36900.00000 0 9138158.017 10898201.668 21170614.215 10 0 59537 37800.00000 0 9021936.191 13419983.434 19723854.979 10 0 59537 38700.00000 0 9087359.943 15741777.879 17893899.899 10 0 59537 39600.00000 0 9303416.957 17806590.234 15716325.572 10 0 59537 40500.00000 0 9629885.747 19566007.180 13233456.719 10 0 59537 41400.00000 0 10019193.472 20982018.194 10493542.713 10 0 59537 42300.00000 0 10418596.494 22028413.629 7549818.972 10 0 59537 43200.00000 0 10772591.122 22691701.968 4459471.397 10 0 59537 44100.00000 0 11025452.236 22971508.687 1282524.092 10 0 59537 45000.00000 0 11123792.048 22880440.903 -1919327.791 10 0 59537 45900.00000 0 11019030.394 22443424.414 -5083917.132 10 0 59537 46800.00000 0 10669671.687 21696541.867 -8149812.325 10 0 59537 47700.00000 0 10043291.853 20685421.689 -11057509.380 10 0 59537 48600.00000 0 9118150.856 19463246.190 -13750585.367 10 0 59537 49500.00000 0 7884362.161 18088463.019 -16176790.888 10 0 59537 50400.00000 0 6344569.249 16622296.469 -18289060.434 10 0 59537 51300.00000 0 4514099.870 15126163.135 -20046421.459 10 0 59537 52200.00000 0 2420590.561 13659100.185 -21414785.024 10 0 59537 53100.00000 0 103096.064 12275313.707 -22367603.210 10 0 59537 54000.00000 0 -2389280.412 11021949.261 -22886381.171 10 0 59537 54900.00000 0 -4999180.342 9937177.342 -22961034.399 10 0 59537 55800.00000 0 -7663133.079 9048673.200 -22590084.576 10 0 59537 56700.00000 0 -10313961.345 8372553.975 -21780690.367 10 0 59537 57600.00000 0 -12883350.311 7912817.043 -20548512.389 10 0 59537 58500.00000 0 -15304474.583 7661302.666 -18917414.605 10 0 59537 59400.00000 0 -17514574.852 7598182.133 -16919007.350 10 0 59537 60300.00000 0 -19457377.778 7692950.710 -14592040.099 10 0 59537 61200.00000 0 -21085258.773 7905883.485 -11981655.041 10 0 59537 62100.00000 0 -22361057.821 8189892.721 -9138515.243 10 0 59537 63000.00000 0 -23259472.684 8492708.224 -6117823.749 10 0 59537 63900.00000 0 -23767971.183 8759288.455 -2978252.440 10 0 59537 64800.00000 0 -23887184.403 8934360.063 219198.660 10 0 59537 65700.00000 0 -23630764.354 8964977.837 3412389.244 10 0 59537 66600.00000 0 -23024712.188 8802996.017 6539250.178 10 0 59537 67500.00000 0 -22106205.456 8407345.406 9538994.456 10 0 59537 68400.00000 0 -20921974.074 7746018.913 12353303.489 10 0 59537 69300.00000 0 -19526293.763 6797680.393 14927464.987 10 0 59537 70200.00000 0 -17978681.839 5552827.672 17211439.832 10 0 59537 71100.00000 0 -16341392.665 4014459.406 19160836.928 10 0 59537 72000.00000 0 -14676818.420 2198216.561 20737776.859 10 0 59537 72900.00000 0 -13044904.506 131991.364 21911627.689 10 0 59537 73800.00000 0 -11500688.079 -2144981.036 22659598.867 10 0 59537 74700.00000 0 -10092062.723 -4583511.124 22967181.958 10 0 59537 75600.00000 0 -8857862.532 -7126266.787 22828430.070 10 0 59537 76500.00000 0 -7826345.208 -9709933.559 22246070.879 10 0 59537 77400.00000 0 -7014136.966 -12267634.017 21231451.288 10 0 59537 78300.00000 0 -6425682.514 -14731506.270 19804314.988 10 0 59537 79200.00000 0 -6053222.137 -17035334.782 17992417.215 10 0 59537 80100.00000 0 -5877295.852 -19117124.444 15830984.166 10 0 59537 81000.00000 0 -5867752.376 -20921511.168 13362027.436 10 0 59537 81900.00000 0 -5985219.502 -22401908.965 10633526.624 10 0 59537 82800.00000 0 -6182973.052 -23522304.308 7698495.957 10 0 59537 83700.00000 0 -6409124.734 -24258623.355 4613953.037 10 0 59537 84600.00000 0 -6609035.808 -24599615.356 1439809.793 10 0 59537 85500.00000 0 -6727853.940 -24547215.878 -1762292.510 99